Date String (YYYY-MM-DD hh:mm:ss) UTC,Instrument flags,Ambient pressure (hPa),Sample flow (lpm),Bypass flow (lpm),Sample temperature (°C),Ambient temperature (°C),ASC tube jacket temperature (°C),LED temperature (°C),Box temperature (°C),Sample RH (%),Span deviation,Mass concentration (μg/m³),Mass concentration (μg/m³),Mass concentration (μg/m³)
DateTimeUTC,F1_M11,P_M11,Q1_M11,Q2_M11,T1_M11,T2_M11,T3_M11,T4_M11,T5_M11,U1_M11,ZSPAN_M11,X0_M11,X2_M11,X1_M11
2023-01-05 12:00:00,,0825.6,4.99,0.00,22.2,20.4,00.0,31.2,23.7,08.0,0000.0,0015.39,0007.82,0006.91
2023-01-05 12:01:00,,0825.6,5.01,0.00,22.2,21.2,00.0,31.1,23.9,08.0,-000.2,0015.68,0007.76,0006.79
2023-01-05 12:02:00,,0825.7,4.99,0.00,22.3,22.2,00.0,31.1,24.2,08.0,-000.1,0016.23,0007.70,0006.69
2023-01-05 12:03:00,,0825.7,5.01,0.00,22.4,23.0,00.0,31.1,24.4,07.9,-000.1,0015.88,0007.53,0006.55
2023-01-05 12:04:00,,0825.7,5.00,0.00,22.5,22.9,00.0,31.2,24.5,07.8,0000.9,0015.26,0007.32,0006.37
2023-01-05 12:05:00,,0825.7,4.99,0.00,22.5,22.4,00.0,31.2,24.4,07.8,0001.2,0015.03,0007.14,0006.20
2023-01-05 12:06:00,,0825.7,5.00,0.00,22.5,21.9,00.0,31.2,24.3,07.8,0001.7,0014.42,0006.97,0006.08
2023-01-05 12:07:00,,0825.7,5.00,0.00,22.5,21.4,00.0,31.3,24.1,07.8,0000.9,0013.70,0006.80,0006.00
2023-01-05 12:08:00,,0825.7,5.01,0.00,22.4,21.1,00.0,31.2,24.0,07.8,0000.7,0013.38,0006.66,0005.93
2023-01-05 12:09:00,,0825.7,5.00,0.00,22.3,20.9,00.0,31.2,23.9,07.8,0001.6,0012.99,0006.54,0005.85
2023-01-05 12:10:00,,0825.7,5.01,0.00,22.3,20.7,00.0,31.2,23.9,07.8,0001.3,0012.62,0006.34,0005.74
2023-01-05 12:11:00,,0825.7,5.00,0.00,22.3,20.6,00.0,31.2,23.8,07.8,0000.1,0012.11,0006.12,0005.60
2023-01-05 12:12:00,,0825.9,4.99,0.00,22.2,20.5,00.0,31.2,23.8,07.7,0000.0,0011.59,0005.94,0005.48
2023-01-05 12:13:00,,0825.8,5.01,0.00,22.2,20.5,00.0,31.1,23.8,07.8,0000.0,0010.71,0005.76,0005.35
2023-01-05 12:14:00,,0825.8,5.02,0.00,22.2,21.0,00.0,31.1,23.9,07.8,0000.0,0010.52,0005.65,0005.28
2023-01-05 12:15:00,,0825.8,4.99,0.00,22.3,22.1,00.0,31.1,24.2,07.7,0000.0,0010.43,0005.59,0005.23
2023-01-05 12:16:00,,0825.8,5.00,0.00,22.4,22.8,00.0,31.1,24.4,07.7,0000.0,0010.03,0005.51,0005.18
2023-01-05 12:17:00,,0825.9,4.99,0.00,22.5,22.6,00.0,31.1,24.4,07.6,0000.0,0009.51,0005.45,0005.11
2023-01-05 12:18:00,,0825.8,4.99,0.00,22.5,22.1,00.0,31.2,24.3,07.6,0000.0,0008.94,0005.39,0005.04
2023-01-05 12:19:00,,0825.9,5.00,0.00,22.4,21.6,00.0,31.2,24.1,07.6,0000.0,0008.38,0005.31,0004.98
2023-01-05 12:20:00,,0825.8,5.00,0.00,22.4,21.2,00.0,31.2,24.0,07.6,0000.0,0008.33,0005.24,0004.94
2023-01-05 12:21:00,,0825.8,5.01,0.00,22.3,21.0,00.0,31.2,23.9,07.6,0000.0,0008.19,0005.17,0004.90
2023-01-05 12:22:00,,0825.8,5.01,0.00,22.3,20.8,00.0,31.2,23.9,07.7,0000.0,0008.20,0005.16,0004.88
2023-01-05 12:23:00,,0825.8,5.01,0.00,22.2,20.7,00.0,31.2,23.8,07.7,0000.0,0008.17,0005.13,0004.84
2023-01-05 12:24:00,,0826.0,5.00,0.00,22.2,20.6,00.0,31.1,23.7,07.7,0000.0,0008.09,0005.09,0004.80
2023-01-05 12:25:00,,0826.0,5.01,0.00,22.1,20.8,00.0,31.1,23.8,07.7,0000.0,0008.64,0005.07,0004.77
2023-01-05 12:26:00,,0825.9,5.01,0.00,22.2,21.8,00.0,31.1,24.0,07.7,0000.0,0008.74,0005.03,0004.74
2023-01-05 12:27:00,,0825.7,5.00,0.00,22.4,22.8,00.0,31.1,24.3,07.6,0000.0,0008.81,0005.01,0004.71
2023-01-05 12:28:00,,0825.8,5.00,0.00,22.4,22.7,00.0,31.1,24.4,07.6,0000.0,0008.77,0004.99,0004.71
2023-01-05 12:29:00,,0825.8,4.98,0.00,22.5,22.2,00.0,31.2,24.3,07.6,0000.0,0008.78,0004.97,0004.70
2023-01-05 12:30:00,,0825.8,5.00,0.00,22.4,21.8,00.0,31.2,24.2,07.6,0000.0,0008.81,0004.98,0004.71
2023-01-05 12:31:00,,0825.8,4.99,0.00,22.4,21.4,00.0,31.2,24.1,07.6,0000.0,0009.61,0005.02,0004.73
2023-01-05 12:32:00,,0825.9,5.01,0.00,22.3,21.1,00.0,31.2,24.0,07.6,0000.0,0009.69,0005.06,0004.75
2023-01-05 12:33:00,,0825.8,5.00,0.00,22.3,20.9,00.0,31.2,23.9,07.6,0000.0,0009.72,0005.05,0004.77
2023-01-05 12:34:00,,0825.9,5.01,0.00,22.3,20.7,00.0,31.2,23.8,07.7,0000.0,0010.09,0005.08,0004.81
2023-01-05 12:35:00,,0826.0,5.00,0.00,22.2,20.6,00.0,31.1,23.8,07.6,0000.0,0010.13,0005.10,0004.82
2023-01-05 12:36:00,,0826.0,5.00,0.00,22.2,20.5,00.0,31.1,23.8,07.7,0000.0,0009.54,0005.10,0004.82
2023-01-05 12:37:00,,0825.9,5.01,0.00,22.2,21.1,00.0,31.1,23.9,07.7,0000.0,0009.33,0005.10,0004.82
2023-01-05 12:38:00,,0826.0,4.99,0.00,22.3,22.1,00.0,31.1,24.2,07.6,0000.0,0009.19,0005.08,0004.82
2023-01-05 12:39:00,,0826.0,5.00,0.00,22.4,22.8,00.0,31.1,24.4,07.6,0000.0,0009.16,0005.06,0004.81
2023-01-05 12:40:00,,0826.0,4.99,0.00,22.5,22.5,00.0,31.1,24.4,07.6,0000.0,0009.15,0005.04,0004.80
2023-01-05 12:41:00,,0825.9,5.01,0.00,22.5,22.0,00.0,31.2,24.3,07.6,0000.0,0009.02,0005.00,0004.77
2023-01-05 12:42:00,,0825.8,5.00,0.00,22.5,21.6,00.0,31.2,24.1,07.5,0000.0,0008.36,0004.98,0004.76
2023-01-05 12:43:00,,0825.9,5.01,0.00,22.4,21.3,00.0,31.2,24.1,07.5,0000.0,0008.39,0004.95,0004.73
2023-01-05 12:44:00,,0825.9,5.01,0.00,22.4,21.0,00.0,31.2,24.0,07.5,0000.0,0008.43,0004.92,0004.68
2023-01-05 12:45:00,,0826.0,5.01,0.00,22.3,20.8,00.0,31.2,24.0,07.5,0000.0,0008.00,0004.87,0004.64
2023-01-05 12:46:00,,0826.0,5.01,0.00,22.3,20.7,00.0,31.2,23.9,07.5,0000.0,0007.95,0004.84,0004.61
2023-01-05 12:47:00,,0826.0,5.00,0.00,22.2,20.5,00.0,31.2,23.8,07.5,0000.0,0007.89,0004.81,0004.59
2023-01-05 12:48:00,,0825.9,4.99,0.00,22.2,20.5,00.0,31.1,23.8,07.5,0000.0,0007.89,0004.79,0004.57
2023-01-05 12:49:00,,0825.9,5.02,0.00,22.2,20.8,00.0,31.1,23.9,07.5,0000.0,0007.90,0004.77,0004.55
2023-01-05 12:50:00,,0825.9,5.01,0.00,22.3,21.9,00.0,31.1,24.1,07.4,0000.0,0008.45,0004.73,0004.51
2023-01-05 12:51:00,,0825.9,5.00,0.00,22.4,22.9,00.0,31.1,24.4,07.4,0000.0,0008.62,0004.67,0004.46
2023-01-05 12:52:00,,0825.9,5.00,0.00,22.5,22.9,00.0,31.1,24.5,07.3,0000.0,0008.78,0004.62,0004.40
2023-01-05 12:53:00,,0825.9,5.00,0.00,22.5,22.4,00.0,31.2,24.4,07.3,0000.0,0008.53,0004.56,0004.35
2023-01-05 12:54:00,,0825.8,4.99,0.00,22.5,22.0,00.0,31.2,24.3,07.3,0000.0,0008.40,0004.52,0004.31
2023-01-05 12:55:00,,0825.9,5.00,0.00,22.5,21.7,00.0,31.2,24.3,07.4,0000.0,0008.26,0004.47,0004.29
2023-01-05 12:56:00,,0826.0,5.00,0.00,22.5,21.4,00.0,31.3,24.2,07.3,0000.0,0008.16,0004.43,0004.26
2023-01-05 12:57:00,,0825.9,5.00,0.00,22.5,21.2,00.0,31.3,24.2,07.3,0000.0,0008.08,0004.37,0004.23
2023-01-05 12:58:00,,0825.9,5.00,0.00,22.4,21.0,00.0,31.2,24.1,07.4,0000.0,0008.08,0004.34,0004.20
2023-01-05 12:59:00,,0826.0,5.01,0.00,22.4,20.8,00.0,31.2,24.0,07.4,0000.0,0008.35,0004.32,0004.17
